Location: Unspecified
(52.4292°N, 19.3359°E)
Time: 17:27:29
(UTC+02:00)

Transit 2A Rocket - Pass Details

Date: 22 May 2024
Orbit: 583 x 910 km, 66.7° (Epoch: 22 June)

Event Time Altitude Azimuth Distance (km) Brightness Sun altitude
Rises 08:58:48 0° 299° (WNW) 3,219 7.8 37.2°
Reaches altitude 10° 09:01:52 10° 318° (NW) 2,358 7.2 37.6°
Maximum altitude 09:05:40 19° 2° (N) 1,889 7.1 38.2°
Drops below altitude 10° 09:09:39 10° 46° (NE) 2,499 8.1 38.7°
Sets 09:13:01 0° 64° (ENE) 3,483 8.9 39.2°
